Regional Weather Roundup
Issued by NWS Little Rock, AR

Home | Current Version | Previous Version | Graphics & Text | Print | Product List | Glossary On
Versions: 1 2 3 4 5 6 7 8 9 10 11 12 13 14 15 16 17 18 19 20 21 22 23 24 25 26 27 28 29 30 31
000
ASUS44 KLZK 240005
RWRLZK

WEATHER ROUNDUP FOR ARKANSAS
NATIONAL WEATHER SERVICE LITTLE ROCK AR
700 PM CDT THU MAR 23 2017

NOTE: "FAIR" INDICATES FEW OR NO CLOUDS BELOW 12,000 FEET WITH NO
SIGNIFICANT WEATHER AND/OR OBSTRUCTIONS TO VISIBILITY.

ARZ001-003-010-029-240100-
NORTHWEST ARKANSAS

CITY           SKY/WX    TMP DP  RH WIND       PRES   REMARKS
FAYETTEVILLE   CLEAR     74  47  38 S15G23    29.94F
6HR MIN TEMP:  69; 6HR MAX TEMP:  75;

FORT SMITH     CLEAR     79  49  34 SE10      29.93S
6HR MIN TEMP:  69; 6HR MAX TEMP:  84;

HARRISON       CLEAR     72  49  44 SE14G25   29.98F
6HR MIN TEMP:  68; 6HR MAX TEMP:  79;

BENTONVILLE    CLEAR     72  46  40 S12       29.94S
6HR MIN TEMP:  70; 6HR MAX TEMP:  75;

ROGERS         CLEAR     73  49  42 S14       29.94F
6HR MIN TEMP:  69; 6HR MAX TEMP:  77;

SILOAM SPGS    MOCLDY    73  46  38 SE13G20   29.91F
6HR MIN TEMP:  70; 6HR MAX TEMP:  75;

HIGHFILL       MOCLDY    73  49  42 S18       29.92F
6HR MIN TEMP:  70; 6HR MAX TEMP:  76;

SPRINGDALE     CLEAR     73  48  40 SE12G18   29.95F
$$

ARZ004-005-016-240100-
NORTH CENTRAL ARKANSAS

CITY           SKY/WX    TMP DP  RH WIND       PRES   REMARKS
BATESVILLE     CLEAR     73  52  46 E8        30.05F
6HR MIN TEMP:  66; 6HR MAX TEMP:  77;

FLIPPIN        CLEAR     75  48  38 S15       29.97F
6HR MIN TEMP:  72; 6HR MAX TEMP:  79;

MTN HOME       CLEAR     73  50  44 S14G23    29.99F
6HR MIN TEMP:  69; 6HR MAX TEMP:  78;

$$

ARZ040-041-240100-
WEST CENTRAL ARKANSAS

CITY           SKY/WX    TMP DP  RH WIND       PRES   REMARKS
MENA           CLEAR     79  54  41 SE7       29.99S
MOUNT IDA      CLEAR     79  44  28 VRB5      29.98S
6HR MIN TEMP:  70; 6HR MAX TEMP:  82;

$$

ARZ009-017-025-026-028-240100-
NORTHEAST ARKANSAS

CITY           SKY/WX    TMP DP  RH WIND       PRES   REMARKS
CORNING        FAIR      68  55  64 SE8       30.08F
JONESBORO      CLEAR     73  56  54 S6        30.07F
6HR MIN TEMP:  64; 6HR MAX TEMP:  76;

NEWPORT        CLEAR     72  57  59 MISG        N/A
6HR MIN TEMP:  66; 6HR MAX TEMP:  77;

WALNUT RIDGE   CLEAR     70  55  60 SE5       30.07F
6HR MIN TEMP:  63; 6HR MAX TEMP:  73;

BLYTHEVILLE    CLEAR     73  53  49 SE8       30.10F
6HR MIN TEMP:  65; 6HR MAX TEMP:  75;

$$

ARZ022-023-033-042-044-240100-
CENTRAL ARKANSAS

CITY           SKY/WX    TMP DP  RH WIND       PRES   REMARKS
LITTLE ROCK    CLEAR     79  52  38 S14       30.02S
6HR MIN TEMP:  71; 6HR MAX TEMP:  83;

N LITTLE ROCK    N/A     79  53  40 S9G21     30.03F
6HR MIN TEMP:  70; 6HR MAX TEMP:  82;

JACKSONVILLE   CLEAR     80  55  42 SE9       30.01F
6HR MIN TEMP:  72; 6HR MAX TEMP:  83;

CONWAY           N/A     79  50  36 S12G18    29.99S
SEARCY         CLEAR     77  57  50 SE12      30.05F
6HR MIN TEMP:  69; 6HR MAX TEMP:  81;

HOT SPRINGS    CLEAR     80  48  32 S9        30.01F
6HR MIN TEMP:  73; 6HR MAX TEMP:  83;

RUSSELLVILLE   CLEAR     79  45  29 SE5       29.98F
6HR MIN TEMP:  69; 6HR MAX TEMP:  82;

CLINTON        FAIR      77  57  50 VRB7G13   30.01F
$$

ARZ036-240100-
EAST ARKANSAS

CITY           SKY/WX    TMP DP  RH WIND       PRES   REMARKS
WEST MEMPHIS   CLEAR     74  55  51 S9        30.08S
6HR MIN TEMP:  71; 6HR MAX TEMP:  79;

$$

ARZ050-053-066-070-073-240100-
SOUTHWEST ARKANSAS

CITY           SKY/WX    TMP DP  RH WIND       PRES   REMARKS
ARKADELPHIA    FAIR      78  53  41 S7        30.01S
6HR MIN TEMP:  74; 6HR MAX TEMP:  84;

CAMDEN         CLEAR     81  45  28 S7        30.02S
TEXARKANA      CLEAR     79  49  34 S14       30.00S
6HR MIN TEMP:  75; 6HR MAX TEMP:  83;

EL DORADO      CLEAR     80  48  32 SE7       30.04S
6HR MIN TEMP:  79; 6HR MAX TEMP:  85;

DE QUEEN       CLEAR     80  51  36 S9        29.95S
6HR MIN TEMP:  72; 6HR MAX TEMP:  84;

$$

ARZ056-057-069-240100-
SOUTHEAST ARKANSAS

CITY           SKY/WX    TMP DP  RH WIND       PRES   REMARKS
PINE BLUFF     CLEAR     79  53  40 S14       30.04F
6HR MIN TEMP:  77; 6HR MAX TEMP:  84;

STUTTGART      CLEAR     79  52  38 S12       30.06S
6HR MIN TEMP:  73; 6HR MAX TEMP:  82;

MONTICELLO     CLEAR     81  51  35 S8        30.06S
6HR MIN TEMP:  78; 6HR MAX TEMP:  84;


$$






USA.gov is the U.S. government's official web portal to all federal, state and local government web resources and services.